Location: Newark
(54.4000°N, 32.4500°E)
Time: 19:07:54
(UTC+00:00)

Envisat - Pass Details

Date: 25 January 2020
Orbit: 764 x 766 km, 98.1° (Epoch: 19 February)

Event Time Altitude Azimuth Distance (km) Brightness Sun altitude
Rises 04:28:06 0° 17° (NNE) 3,247 6.3 -11.8°
Reaches altitude 10° 04:30:27 10° 21° (NNE) 2,316 5.5 -11.5°
Maximum altitude 04:35:30 61° 101° (ESE) 872 3.6 -10.8°
Drops below altitude 10° 04:40:31 10° 182° (S) 2,298 5.7 -10.1°
Sets 04:42:50 0° 186° (S) 3,220 6.4 -9.7°
